Home > Time Zones > World Clock > Weather > Italy > Milan > Past weeks

Flag for Italy Weather past 2 weeks in Milan, Italy

Now
54 °F

Cloudy.


Feels Like: 52 °F
Forecast: 51 / 69 °F
Wind: 6 mph from Northeast

Location: Milan / Linate


UV Index: 3 (Moderate)

Visibility: N/A


Pressure: 29.74 "Hg

Humidity: 94%

Dew point: 52 °F

Location of MilanLocation

Historic Weather in Milan

°F

Milan temperature yesterday

Maximum temperature yesterday: 66 °F (at 3:20 PM)
Minimum temperature yesterday: 45 °F (at 5:50 AM)
Average temperature yesterday: 56 °F

Past Weeks' High & Low Weather Summary

 TemperatureHumidityPressure
High75 °F (Apr 7, 3:50 PM)100% (Apr 9, 4:50 AM)30.21 "Hg (Apr 9, 4:50 AM)
Low39 °F (Apr 17, 6:20 AM)14% (Apr 16, 2:50 PM)29.62 "Hg (Apr 19, 3:20 AM)
Average59 °F62%29.95 "Hg
* Reported Apr 6 2:20 PM — Apr 21 2:20 PM, Milan, Weather by CustomWeather, © 2014

Note: Actual official high and low records may vary slightly from our data, if they occured in-between our weather recording intervals... More about our weather records

Advertising

Historic Weather Conditions — Data for Previous 24 hours

 ConditionsComfort  
Time TempWeatherWind HumidityBarometerVisibility
2:20 PM
Apr 21
54 °FCloudy.7 mph94%29.74 "HgN/A
1:50 PM54 °FLight rain. Cloudy.6 mph94%29.71 "Hg4 mi
1:20 PM54 °FLight rain. Cloudy.6 mph94%29.74 "Hg5 mi
12:50 PM52 °FLight rain. Cloudy.6 mph100%29.74 "Hg5 mi
12:20 PM52 °FLight rain. Cloudy.8 mph100%29.71 "Hg5 mi
11:50 AM52 °FLight rain. Cloudy.9 mph100%29.71 "Hg3 mi
11:20 AM52 °FLight rain. Cloudy.7 mph100%29.71 "Hg3 mi
10:50 AM52 °FLight rain. Cloudy.6 mph94%29.71 "Hg3 mi
10:20 AM52 °FLight rain. Cloudy.7 mph100%29.71 "Hg4 mi
9:50 AM52 °FLight rain. Cloudy.6 mph100%29.71 "Hg4 mi
9:20 AM52 °FLight rain. Cloudy.6 mph100%29.71 "Hg5 mi
8:50 AM52 °FLight rain. Cloudy.7 mph100%29.71 "Hg5 mi
8:20 AM52 °FLight rain. Cloudy.6 mph94%29.71 "HgN/A
7:50 AM52 °FLight rain. Cloudy.7 mph94%29.71 "Hg5 mi
7:20 AM52 °FRain. Passing clouds.7 mph100%29.71 "Hg2 mi
6:50 AM52 °FLight rain. Passing clouds.7 mph100%29.71 "Hg2 mi
6:20 AM52 °FLight rain. Passing clouds.7 mph100%29.71 "Hg3 mi
5:50 AM54 °FLight rain. Passing clouds.3 mph94%29.71 "Hg4 mi
5:20 AM52 °FLight rain. Passing clouds.5 mph100%29.71 "Hg4 mi
4:50 AM52 °FLight rain. Passing clouds.6 mph100%29.71 "Hg4 mi
4:20 AM54 °FLight rain. Passing clouds.6 mph94%29.71 "Hg4 mi
3:50 AM54 °FLight rain. Passing clouds.5 mph100%29.71 "Hg4 mi
3:20 AM54 °FLight rain. Passing clouds.6 mph94%29.71 "Hg4 mi
2:50 AM54 °FLight rain. Passing clouds.7 mph100%29.71 "Hg4 mi
2:20 AM54 °FLight rain. Passing clouds.8 mph100%29.71 "Hg4 mi
1:50 AM54 °FLight rain. Passing clouds.5 mph100%29.74 "Hg4 mi
1:20 AM54 °FLight rain. Passing clouds.3 mph100%29.74 "Hg4 mi
12:50 AM54 °FLight rain. Passing clouds.5 mph100%29.74 "Hg5 mi
12:20 AM54 °FLight rain. Passing clouds.3 mph100%29.74 "Hg5 mi
11:50 PM
Apr 20
55 °FLight rain. Passing clouds.6 mph94%29.74 "HgN/A
10:50 PM55 °FLight rain. Passing clouds.2 mph94%29.74 "HgN/A
10:20 PM55 °FLight rain. Passing clouds.5 mph94%29.74 "HgN/A
9:50 PM55 °FLight rain. Passing clouds.2 mph88%29.74 "HgN/A
9:20 PM57 °FLight rain. Passing clouds.9 mph77%29.74 "HgN/A
8:50 PM59 °FPartly sunny.7 mph68%29.71 "HgN/A
8:20 PM59 °FBroken clouds.7 mph72%29.71 "HgN/A
7:50 PM59 °FBroken clouds.9 mph77%29.71 "HgN/A
7:20 PM61 °FBroken clouds.8 mph72%29.68 "HgN/A
6:50 PM61 °FBroken clouds.10 mph72%29.68 "HgN/A
6:20 PM64 °FBroken clouds.8 mph60%29.68 "HgN/A
5:50 PM64 °FScattered clouds.7 mph60%29.68 "HgN/A
5:20 PM64 °FScattered clouds.7 mph56%29.68 "HgN/A
4:50 PM66 °FScattered clouds.6 mph52%29.68 "HgN/A
4:20 PM66 °FPassing clouds.5 mph52%29.68 "HgN/A
3:50 PM66 °FPassing clouds.6 mph49%29.68 "HgN/A
3:20 PM66 °FPassing clouds.6 mph52%29.71 "HgN/A
Weather by CustomWeather, © 2014

See weather overview